Vertical_Velocity
-8 -2 12 5 11 6 13 11 6 2 5 6 -1 -0 -7 3 -7 2 -3 1 0 -2 -1 -0 1 -2 -3 0 -3 -3 -6 -4 -2 -13 -11 -2 -2 -2 -3 -7 -6 -2 -5 -13
-4 0 4 9 7 3 7 3 1 29 2 -1 1 2 -3 -0 6 -5 -0 -1 -1 -1 0 -11 -0 -0 0 2 -1 -1 -2 -2 -3 -10 -10 -7 1 -1 -0 -1 -3 -2 -6 -12
-8 14 -4 11 12 8 7 9 2 17 13 6 -5 1 -4 -0 -3 -5 3 -3 4 1 2 4 -5 0 1 1 -2 -0 -4 -1 -8 -10 -11 -3 1 0 -0 -3 -3 -3 -5 -3
24 4 1 15 12 1 15 3 -8 -16 -1 7 1 4 -0 1 -0 -1 5 3 -0 -2 1 0 0 1 1 1 -1 1 -6 -3 0 -1 0 0 0 1 -1 2 -3 -9 -8 -1
-2 4 -9 17 10 10 25 -0 -4 20 1 3 7 0 -7 -3 -4 9 -4 1 -2 1 -2 -7 -2 -4 -2 -7 1 -0 0 -3 -1 -1 -1 -1 -1 -1 0 -0 -1 -0 1 -2
-5 -1 -6 5 6 15 -1 -1 10 -3 -2 4 9 -15 -9 -9 4 -6 -8 -3 -1 2 -2 -0 3 1 1 -2 -5 -0 -3 -3 -2 -1 0 -2 -9 -5 -1 -1 -0 0 -1 -7
2 2 -3 -5 3 -5 13 -22 15 8 0 0 -11 0 -1 -2 -7 -1 -5 7 -2 10 -4 -8 -7 -8 -3 -6 -5 1 -1 -1 -2 -2 -3 -7 -24 -0 -2 -2 1 -0 -1 1
5 -2 0 1 -8 11 -6 12 6 6 -1 -7 10 7 -4 4 -1 3 -1 2 -8 -10 -6 -5 -3 -7 -6 2 -0 -0 -2 -2 -2 -7 -1 -10 -8 0 -2 -3 3 1 -0 1
-4 -3 -3 -4 -3 9 -18 15 -9 4 0 -11 -12 -3 -8 -3 -0 -2 4 -9 32 1 -2 -3 -2 -2 -4 4 3 -1 -2 -3 -9 -0 -3 -4 -10 0 1 -2 -3 2 -2 1
0 2 1 9 -1 -5 -15 -21 17 3 4 -10 7 -11 -16 5 1 -3 0 -6 -1 -0 -0 -1 -3 -3 -6 -3 -2 -1 -1 -2 -4 0 -1 -9 -3 0 -1 -17 -22 3 -0 1
-8 5 -0 1 14 -3 8 -27 -4 25 6 -6 7 -1 -7 2 4 -5 11 6 -4 -2 -5 -4 -2 -2 -5 -4 -4 -5 -5 -5 -1 -1 -1 -11 0 -3 -14 -12 7 -1 -1 3
-3 -1 -1 5 -9 -8 1 -5 -0 6 11 -0 5 9 8 13 -15 -22 17 -16 -1 -4 -5 -3 -3 -2 -2 -1 -3 1 -8 -11 -11 -13 -14 -6 6 -4 2 -1 -2 5 1 4
-4 2 -7 -7 4 -5 -24 11 17 7 5 -14 17 12 22 9 3 10 -20 6 3 1 2 -4 -1 -4 -4 -3 -5 -2 1 1 -4 -9 -4 -1 3 11 12 7 -2 3 1 -2
0 -6 3 -7 6 12 11 -12 -8 13 13 6 17 11 5 9 13 -35 6 -11 2 -7 5 -2 -1 -3 -1 -3 -8 -6 -8 -4 -2 -2 -2 0 2 3 3 1 3 -3 -2 -0
3 5 -1 10 26 -7 11 3 -12 4 1 2 2 20 6 -3 5 -0 5 -3 -4 0 -3 -2 -2 0 -6 -1 -5 -1 -2 -5 -6 -6 1 -9 6 8 4 -3 -0 2 -1 -1
2 3 6 15 -0 6 -5 15 -8 -29 -29 19 -3 -1 3 9 2 -2 0 -5 -5 -2 -4 -0 2 3 -6 -3 -1 1 3 1 1 -3 1 -5 2 0 3 -5 -0 1 -2 0
8 -3 5 7 -5 2 -6 10 32 32 27 16 -4 -3 -1 5 5 4 5 3 4 -3 1 -1 -1 0 -6 -1 -1 2 4 1 0 3 -5 1 8 -1 1 0 -0 1 -1 -0
-4 4 7 -2 11 6 10 1 -13 -5 13 3 -3 -4 -4 4 -1 -3 2 2 1 -1 -0 1 -2 -1 -1 -2 4 3 3 0 -1 -0 2 -3 -0 1 -2 0 1 -2 -4 -3
17 19 1 19 -3 -11 -27 -6 4 17 -6 -5 -3 -3 -3 1 0 2 -2 1 -3 3 -2 -0 -6 -1 -1 -1 -1 1 5 -3 1 4 0 1 -3 -3 -2 1 3 -3 0 1
10 -15 -0 14 12 18 12 12 -5 -8 -4 -2 -3 1 -2 -2 -0 1 -4 0 -1 -2 -6 1 -3 1 5 4 4 2 4 -1 -4 -9 3 0 -0 -1 2 -0 -0 -0 -1 -0
12 -0 1 18 -7 -5 -6 -2 -5 0 -3 -0 1 -1 -1 5 -4 -1 -0 -1 -1 -2 -7 -9 -1 0 2 4 -3 2 0 6 4 1 -0 4 -5 -6 -3 0 0 -0 -0 -1
-4 -36 0 -2 -5 -6 -9 0 -5 -3 2 -2 -1 7 -5 1 3 -4 1 -2 -4 -1 -1 -3 0 1 8 -2 2 4 -0 -1 -1 3 -3 -0 -3 -0 -1 -0 -2 -0 -1 -1
1 -11 -8 -6 2 -8 -1 -1 -2 -1 -0 -0 -0 -2 -1 -2 -3 -2 -2 -2 -2 -0 -2 -1 -0 3 5 1 2 4 -1 -0 -3 -2 -3 -1 -3 0 1 -3 -0 -0 0 0
-9 -4 -4 -3 2 1 1 1 1 -1 2 5 0 -1 -1 2 -5 -0 -4 -1 -4 1 1 -2 1 1 -0 2 6 3 4 2 -3 -0 1 -0 2 -0 -1 1 1 1 -1 -1
-7 -6 1 -0 1 2 0 1 1 1 3 -2 -1 -1 -2 -0 -2 -1 0 2 1 -2 -0 1 0 -1 3 9 2 0 1 1 -4 -1 2 -0 -0 -0 -1 0 -0 -0 -0 -0
-6 -6 -2 -0 -2 -0 -2 -1 -1 1 -2 -1 1 -1 -1 1 -1 -1 1 -2 1 2 0 2 2 3 3 -2 -1 -4 -4 -7 -0 2 1 -1 -0 0 -1 0 1 0 -0 -1
-4 -1 4 1 -0 3 2 1 1 1 -1 -0 -0 -3 -0 -1 -1 -1 1 1 2 1 2 2 4 0 -1 1 3 -2 1 1 0 -0 1 0 1 1 -1 -0 -1 -0 3 1
Height
1386 1393 1401 1413 1423 1434 1444 1450 1455 1459 1466 1478 1473 1470 1466 1462 1452 1452 1454 1448 1449 1453 1455 1464 1466 1466 1464 1463 1460 1475 1479 1495 1515 1499 1480 1476 1481 1485 1493 1527 1513 1525 1533 1521
1375 1383 1392 1403 1413 1421 1433 1438 1445 1455 1456 1461 1460 1461 1460 1459 1452 1450 1448 1446 1445 1446 1453 1474 1458 1461 1463 1461 1463 1469 1473 1487 1517 1505 1490 1481 1482 1479 1479 1489 1507 1514 1537 1519
1364 1373 1384 1392 1405 1413 1424 1430 1436 1445 1448 1441 1445 1452 1451 1454 1447 1448 1446 1443 1444 1447 1455 1459 1459 1462 1459 1458 1466 1466 1468 1478 1495 1516 1497 1483 1486 1479 1478 1485 1520 1515 1517 1496
1354 1364 1373 1383 1394 1407 1416 1415 1413 1414 1422 1432 1435 1441 1442 1445 1446 1443 1442 1442 1442 1446 1450 1450 1453 1461 1464 1465 1466 1467 1470 1485 1479 1481 1480 1478 1477 1479 1478 1481 1486 1502 1495 1490
1347 1356 1365 1374 1386 1398 1407 1402 1402 1410 1411 1424 1432 1431 1431 1434 1436 1438 1436 1440 1438 1441 1445 1448 1451 1452 1459 1463 1467 1467 1468 1487 1480 1485 1480 1484 1485 1481 1478 1477 1474 1476 1478 1482
1341 1350 1357 1367 1378 1390 1388 1396 1395 1403 1407 1415 1424 1416 1421 1424 1430 1431 1428 1432 1436 1441 1441 1441 1444 1446 1453 1456 1464 1470 1475 1487 1497 1497 1494 1491 1505 1484 1477 1475 1473 1475 1485 1475
1333 1342 1350 1359 1372 1379 1383 1388 1393 1397 1402 1405 1402 1413 1418 1421 1424 1430 1425 1427 1432 1438 1437 1442 1446 1452 1457 1457 1466 1467 1478 1485 1497 1508 1507 1521 1483 1467 1467 1471 1474 1473 1475 1476
1327 1336 1344 1355 1367 1375 1383 1386 1397 1392 1397 1398 1407 1406 1409 1418 1421 1423 1423 1425 1426 1434 1438 1454 1463 1475 1471 1473 1472 1470 1471 1485 1500 1510 1513 1493 1476 1469 1470 1471 1482 1476 1477 1478
1321 1330 1340 1352 1362 1373 1383 1383 1387 1393 1393 1385 1392 1403 1406 1414 1415 1420 1418 1428 1429 1430 1442 1456 1465 1482 1471 1480 1474 1473 1473 1477 1493 1505 1512 1517 1484 1469 1467 1467 1495 1478 1477 1478
1316 1326 1338 1349 1359 1368 1378 1382 1386 1389 1387 1384 1389 1390 1394 1404 1410 1419 1423 1432 1429 1430 1451 1464 1473 1474 1456 1477 1481 1487 1492 1492 1500 1513 1516 1497 1470 1466 1467 1492 1496 1477 1478 1479
1315 1326 1337 1346 1354 1365 1373 1376 1384 1388 1386 1381 1384 1389 1391 1399 1399 1413 1421 1438 1431 1435 1447 1457 1465 1473 1465 1469 1465 1474 1482 1494 1504 1503 1508 1503 1465 1467 1478 1477 1475 1477 1478 1480
1317 1327 1336 1345 1357 1364 1369 1374 1380 1387 1393 1384 1382 1382 1387 1392 1393 1399 1412 1417 1417 1420 1435 1446 1455 1469 1469 1468 1480 1457 1476 1470 1482 1482 1486 1466 1464 1466 1468 1470 1473 1476 1477 1479
1318 1327 1335 1342 1349 1357 1365 1372 1381 1388 1391 1384 1384 1381 1385 1392 1393 1395 1402 1412 1411 1416 1420 1432 1448 1460 1463 1472 1472 1457 1454 1456 1469 1469 1463 1462 1462 1465 1467 1469 1472 1473 1475 1477
1319 1327 1334 1341 1350 1359 1367 1373 1382 1386 1385 1369 1368 1380 1382 1387 1390 1391 1401 1404 1410 1415 1421 1429 1444 1453 1447 1461 1455 1459 1455 1455 1461 1465 1461 1465 1467 1467 1467 1469 1471 1471 1474 1476
1318 1325 1332 1339 1353 1364 1373 1378 1380 1383 1388 1385 1376 1377 1383 1388 1390 1395 1400 1404 1409 1415 1423 1432 1440 1437 1444 1448 1450 1457 1448 1454 1465 1474 1461 1462 1469 1468 1468 1468 1471 1472 1474 1476
1319 1323 1333 1344 1352 1364 1376 1372 1371 1378 1380 1383 1383 1386 1385 1388 1394 1399 1403 1409 1413 1416 1420 1428 1430 1433 1438 1455 1463 1449 1446 1448 1450 1457 1458 1460 1466 1467 1468 1468 1472 1473 1475 1477
1317 1326 1334 1343 1353 1361 1364 1364 1361 1370 1374 1371 1382 1389 1390 1393 1398 1403 1406 1409 1413 1417 1422 1427 1430 1433 1435 1448 1454 1447 1447 1449 1452 1456 1457 1464 1466 1468 1470 1471 1473 1475 1477 1479
1320 1328 1338 1351 1359 1363 1365 1369 1369 1371 1376 1377 1392 1400 1398 1399 1402 1406 1407 1410 1414 1419 1424 1427 1430 1434 1436 1447 1442 1444 1447 1450 1453 1455 1455 1458 1463 1467 1471 1473 1475 1477 1479 1483
1327 1337 1347 1354 1359 1367 1367 1370 1371 1371 1376 1382 1392 1401 1405 1403 1405 1407 1410 1412 1422 1424 1426 1427 1431 1442 1443 1438 1440 1443 1446 1448 1453 1456 1458 1462 1465 1469 1473 1476 1478 1480 1483 1485
1331 1341 1347 1345 1350 1353 1360 1364 1366 1371 1378 1382 1392 1398 1403 1405 1407 1413 1417 1418 1425 1432 1430 1427 1432 1444 1441 1442 1443 1445 1447 1448 1450 1454 1461 1464 1469 1472 1475 1477 1480 1482 1484 1485
1341 1343 1345 1351 1360 1364 1365 1370 1375 1378 1385 1387 1394 1396 1402 1405 1409 1414 1417 1421 1423 1429 1431 1433 1441 1443 1440 1442 1445 1447 1447 1449 1452 1455 1459 1463 1467 1471 1475 1478 1480 1482 1484 1485
1347 1351 1358 1361 1366 1369 1374 1381 1382 1382 1391 1395 1397 1396 1402 1405 1408 1410 1417 1422 1425 1432 1429 1433 1434 1438 1437 1442 1447 1448 1450 1452 1455 1458 1461 1465 1470 1473 1475 1478 1480 1482 1483 1484
1351 1357 1365 1372 1382 1385 1391 1391 1392 1394 1399 1400 1399 1402 1403 1407 1409 1412 1416 1419 1428 1428 1434 1434 1438 1440 1441 1444 1448 1450 1453 1457 1459 1462 1465 1469 1471 1474 1476 1478 1480 1481 1483 1484
1355 1366 1382 1386 1393 1400 1397 1394 1398 1402 1401 1398 1399 1403 1407 1408 1412 1416 1420 1428 1428 1431 1435 1433 1439 1443 1443 1446 1449 1451 1455 1458 1462 1466 1469 1471 1473 1474 1477 1479 1481 1482 1482 1483
1366 1376 1390 1395 1399 1398 1398 1398 1399 1401 1400 1400 1404 1408 1412 1413 1416 1420 1425 1428 1426 1427 1432 1438 1440 1442 1444 1446 1449 1453 1457 1461 1465 1468 1470 1472 1474 1476 1477 1480 1481 1482 1482 1482
1383 1393 1398 1399 1399 1400 1400 1399 1401 1401 1402 1406 1409 1412 1413 1417 1418 1418 1421 1421 1429 1436 1438 1438 1440 1442 1444 1447 1452 1456 1459 1462 1466 1468 1470 1472 1475 1476 1478 1479 1480 1481 1481 1480
1398 1404 1404 1404 1406 1407 1406 1406 1406 1406 1407 1409 1410 1412 1419 1420 1420 1427 1432 1434 1437 1437 1438 1440 1442 1443 1446 1450 1454 1458 1461 1464 1466 1468 1470 1472 1475 1476 1477 1478 1479 1480 1479 1478